Retour au catalogue

SL-8 DEB *

ActifLEO
NORAD 14809·DEBRIS·🇷🇺 Russia

Lancé Jul 1, 1980 depuis Plesetsk Cosmodrome

Loading…

Prochains Passages (prochaines 24 heures)

TLE

FraisSource: Space-Track

Époque: Sep 14, 2026, 04:33 UTC

1 14809U 80056D   26257.18962219  .00000836  00000-0  19556-3 0  9997
2 14809  74.0309 280.9328 0008821 195.7364 276.9567 14.56196422305328

Suivez SL-8 DEB * en temps réel avec AllMySat

Download on the App Store